Moses Lake, WA
on Tuesday, February 12, 2013

Tuesday
Previous Day Next Day
Daily Summary
 ActualAverageRecord
Temperature
Mean Temperature °F 34°F  
Max Temperature 49°F 43°F 60°F (2011)
Min Temperature 26°F 26°F 10°F (1997)
Degree Days
Heating Degree Days 27 30  
Month to date heating degree days 353 379  
Since 1 July heating degree days 3707 4053  
Cooling Degree Days 0 0  
Month to date cooling degree days 0 0  
Year to date cooling degree days 0 0  
Moisture
Dew Point 29°F   
Average Humidity 75    
Maximum Humidity 92    
Minimum Humidity 58    
Precipitation
Precipitation 0.00 in 0.03 in 0.25 in (1998)
Month to date precipitation 0.00 0.40  
Year to date precipitation 0.28 1.54  
Wind
Wind Speed 6 mph   
Max Wind Speed 20 mph   
Max Gust Speed 26 mph   
Visibility 8 miles   
Events     

Key: T is trace of precipitation, MM is missing value
Source: NWS Daily Summary
Time(PST)TemperatureDew PointHumidity Pressure Visibility Wind DirectionWind SpeedGust SpeedPrecipitationEvents Conditions
12:52 AM 27.0°F 24.1°F 89% 30.28 in 6.0 miles North 4.6 mph - N/A   Clear
1:52 AM 27.0°F 24.1°F 89% 30.29 in 6.0 miles Calm Calm - N/A   Clear
2:52 AM 28.0°F 25.0°F 88% 30.29 in 6.0 miles Calm Calm - N/A   Overcast
3:52 AM 28.9°F 25.0°F 85% 30.29 in 6.0 miles North 3.5 mph - N/A   Partly Cloudy
4:52 AM 28.0°F 25.0°F 88% 30.30 in 6.0 miles NNE 5.8 mph - N/A   Mostly Cloudy
5:52 AM 28.9°F 26.1°F 89% 30.31 in 6.0 miles NNE 3.5 mph - N/A   Overcast
6:52 AM 28.9°F 25.0°F 85% 30.32 in 6.0 miles Calm Calm - N/A   Partly Cloudy
7:52 AM 30.0°F 26.1°F 85% 30.34 in 5.0 miles Calm Calm - N/A   Overcast
8:52 AM 32.0°F 28.0°F 85% 30.34 in 5.0 miles Calm Calm - N/A   Overcast
9:52 AM 34.0°F 30.0°F 85% 30.34 in 6.0 miles Calm Calm - N/A   Scattered Clouds
10:52 AM 35.1°F 28.9°F 78% 30.34 in 7.0 miles Calm Calm - N/A   Clear
11:52 AM 37.0°F 30.9°F 79% 30.33 in 6.0 miles ESE 4.6 mph - N/A   Haze
12:52 PM 39.9°F 30.9°F 70% 30.32 in 8.0 miles Calm Calm - N/A   Mostly Cloudy
1:52 PM 44.1°F 30.9°F 60% 30.31 in 10.0 miles SW 5.8 mph - N/A   Scattered Clouds
2:52 PM 45.0°F 30.9°F 58% 30.29 in 10.0 miles SSW 6.9 mph - N/A   Clear
3:52 PM 45.0°F 32.0°F 60% 30.27 in 10.0 miles SSE 4.6 mph - N/A   Clear
4:52 PM 46.0°F 33.1°F 61% 30.25 in 10.0 miles SSE 6.9 mph - N/A   Partly Cloudy
5:52 PM 46.0°F 32.0°F 58% 30.24 in 10.0 miles South 9.2 mph - N/A   Clear
6:52 PM 45.0°F 30.9°F 58% 30.23 in 10.0 miles South 12.7 mph - N/A   Clear
7:52 PM 45.0°F 32.0°F 60% 30.22 in 10.0 miles SW 12.7 mph - N/A   Partly Cloudy
8:52 PM 44.1°F 32.0°F 63% 30.22 in 10.0 miles SSW 10.4 mph - N/A   Scattered Clouds
9:52 PM 46.0°F 33.1°F 61% 30.20 in 10.0 miles South 11.5 mph - N/A   Mostly Cloudy
10:52 PM 46.0°F 33.1°F 61% 30.19 in 10.0 miles SSW 13.8 mph - N/A   Scattered Clouds
11:52 PM 46.0°F 33.1°F 61% 30.19 in 10.0 miles SSW 16.1 mph 24.2 mph N/A   Clear
Moon Phase
Feb. 12 Feb. 17 Feb. 25 Mar. 04 Mar. 11
Sunrise:07:06 AM (PST) Moon Rise:07:51 AM (PST)2/12
Sunset:05:17 PM (PST) Moon Set:08:40 PM (PST)2/12

Copyright © 2014 The Weather Underground, Inc.